Saginaw Browne, MI

3:01 AM EDT on August 21, 2017 (GMT -0400)
Saginaw County-Browne

Weather History for KHYX - January, 2013

Change the Weather History Date:

Thursday, January 3, 2013

  Actual Average (KMBS) Record (KMBS)
Temperature  
Mean Temperature 26 °F -  
Max Temperature 30 °F 29 °F 55 °F (2004)
Min Temperature 21 °F 17 °F -7 °F (2014)
Degree Days  
Heating Degree Days 40    
Moisture  
Dew Point 20 °F    
Average Humidity 79    
Maximum Humidity 86    
Minimum Humidity 69    
Precipitation  
Precipitation 0.00 in - - ()
Sea Level Pressure  
Sea Level Pressure 30.06 in    
Wind  
Wind Speed 12 mph (SW)    
Max Wind Speed 16 mph    
Max Gust Speed 22 mph    
Visibility 9 miles    
Events Snow    
Averages and records for this station are not official NWS values.
T = Trace of Precipitation, MM = Missing Value Source: NWS Daily Summary

Daily Weather History Graph

Daily Weather History Graph

Search for Another Location

Airport or City:

Trip Planner

Search our weather history database for the weather conditions in past years. The results will help you decide how hot, cold, wet, or windy it might be!

Date:

Astronomy

Jan. 03, 2013 Rise Set
Actual Time 8:08 AM EST 5:12 PM EST
Civil Twilight 7:35 AM EST 5:44 PM EST
Nautical Twilight 6:59 AM EST 6:20 PM EST
Astronomical Twilight 6:25 AM EST 6:55 PM EST
Moon 11:59 PM EST (1/3) 11:07 AM EST (1/3)
Length of Visible Light 10h 08m
Length of Day
9h 03m
Waning Gibbous, 65% of the Moon is Illuminated
Jan 3
Waning Gibbous
Jan 4
Last Quarter
Jan 11
New
Jan 18
First Quarter
Jan 26
Full

Hourly Weather History & Observations

Time (EST) Temp. Windchill Dew Point Humidity Pressure Visibility Wind Dir Wind Speed Gust Speed Precip Events Conditions
12:14 AM 26.6 °F 16.2 °F 21.2 °F 80% 30.11 in 10.0 mi SSW 11.5 mph - N/A   Overcast
12:34 AM 26.6 °F 16.8 °F 21.2 °F 80% 30.11 in 10.0 mi SW 10.4 mph - N/A   Overcast
12:54 AM 26.6 °F 16.8 °F 21.2 °F 80% 30.10 in 10.0 mi SW 10.4 mph - N/A   Overcast
1:14 AM 26.6 °F 16.2 °F 21.2 °F 80% 30.11 in 10.0 mi SW 11.5 mph - N/A   Overcast
1:34 AM 26.6 °F 15.7 °F 21.2 °F 80% 30.11 in 10.0 mi SW 12.7 mph - N/A   Overcast
1:54 AM 26.6 °F 15.2 °F 19.4 °F 74% 30.11 in 10.0 mi SSW 13.8 mph - N/A   Overcast
2:14 AM 24.8 °F 12.9 °F 19.4 °F 80% 30.11 in 10.0 mi SW 13.8 mph - N/A   Overcast
2:34 AM 24.8 °F 13.4 °F 19.4 °F 80% 30.11 in 10.0 mi SW 12.7 mph - N/A   Overcast
2:54 AM 23.0 °F 13.1 °F 19.4 °F 86% 30.10 in 10.0 mi SSW 9.2 mph - N/A   Overcast
3:15 AM 23.0 °F 13.1 °F 17.6 °F 80% 30.09 in 10.0 mi South 9.2 mph - N/A   Overcast
3:35 AM 23.0 °F 10.1 °F 17.6 °F 80% 30.09 in 10.0 mi SSW 15.0 mph - N/A   Overcast
3:55 AM 23.0 °F 12.4 °F 15.8 °F 74% 30.07 in 10.0 mi SSW 10.4 mph - N/A   Overcast
4:15 AM 23.0 °F 11.1 °F 15.8 °F 74% 30.06 in 10.0 mi SSW 12.7 mph - N/A Snow Light Snow
4:35 AM 23.0 °F 12.4 °F 15.8 °F 74% 30.06 in 10.0 mi SSW 10.4 mph - N/A   Overcast
4:55 AM 21.2 °F 8.3 °F 15.8 °F 80% 30.05 in 2.5 mi SSW 13.8 mph 17.3 mph N/A Snow Light Snow
5:15 AM 21.2 °F 8.3 °F 15.8 °F 80% 30.05 in 10.0 mi SSW 13.8 mph - N/A Snow Light Snow
5:35 AM 21.2 °F 10.1 °F 15.8 °F 80% 30.04 in 10.0 mi South 10.4 mph - N/A   Overcast
5:55 AM 21.2 °F 10.1 °F 15.8 °F 80% 30.04 in 10.0 mi South 10.4 mph - N/A   Overcast
6:10 AM 21.2 °F 8.9 °F 15.8 °F 80% 30.04 in 10.0 mi SSW 12.7 mph - N/A   Overcast
6:31 AM 21.2 °F 8.9 °F 15.8 °F 80% 30.04 in 10.0 mi SSW 12.7 mph - N/A Snow Light Snow
6:51 AM 21.2 °F 9.5 °F 15.8 °F 80% 30.02 in 10.0 mi South 11.5 mph - N/A   Overcast
7:11 AM 21.2 °F 10.1 °F 15.8 °F 80% 30.02 in 10.0 mi SSW 10.4 mph - N/A   Overcast
7:31 AM 21.2 °F 8.9 °F 15.8 °F 80% 30.01 in 10.0 mi SSW 12.7 mph - N/A Snow Light Snow
7:51 AM 21.2 °F 9.5 °F 15.8 °F 80% 30.02 in 10.0 mi SW 11.5 mph 16.1 mph N/A   Overcast
8:11 AM 21.2 °F 8.3 °F 15.8 °F 80% 30.02 in 10.0 mi SSW 13.8 mph - N/A   Overcast
8:31 AM 21.2 °F 8.3 °F 15.8 °F 80% 30.03 in 10.0 mi SW 13.8 mph - N/A   Overcast
8:51 AM 21.2 °F 10.1 °F 15.8 °F 80% 30.03 in 7.0 mi SW 10.4 mph - N/A Snow Light Snow
9:11 AM 21.2 °F 10.9 °F 17.6 °F 86% 30.03 in 7.0 mi SW 9.2 mph - N/A Snow Light Snow
9:31 AM 23.0 °F 13.1 °F 17.6 °F 80% 30.04 in 7.0 mi SW 9.2 mph - N/A   Overcast
9:52 AM 23.0 °F 14.7 °F 17.6 °F 80% 30.04 in 7.0 mi SW 6.9 mph - N/A   Overcast
10:12 AM 23.0 °F 13.9 °F 17.6 °F 80% 30.04 in 10.0 mi SW 8.1 mph - N/A   Overcast
10:32 AM 23.0 °F 11.7 °F 19.4 °F 86% 30.04 in 10.0 mi SW 11.5 mph - N/A   Overcast
10:52 AM 24.8 °F 14.6 °F 19.4 °F 80% 30.04 in 10.0 mi SW 10.4 mph - N/A   Overcast
11:12 AM 24.8 °F 14.0 °F 21.2 °F 86% 30.03 in 7.0 mi WSW 11.5 mph - N/A Snow Light Snow
11:32 AM 24.8 °F 13.4 °F 21.2 °F 86% 30.03 in 7.0 mi WSW 12.7 mph - N/A Snow Light Snow
11:52 AM 26.6 °F 16.8 °F 21.2 °F 80% 30.03 in 7.0 mi WSW 10.4 mph - N/A   Overcast
12:12 PM 26.6 °F 16.2 °F 21.2 °F 80% 30.02 in 5.0 mi WSW 11.5 mph - N/A Snow Light Snow
12:32 PM 26.6 °F 16.8 °F 23.0 °F 86% 30.01 in 5.0 mi WSW 10.4 mph - N/A Snow Light Snow
12:53 PM 26.6 °F 17.5 °F 23.0 °F 86% 30.01 in 5.0 mi WSW 9.2 mph - N/A Snow Light Snow
1:13 PM 26.6 °F 16.8 °F 23.0 °F 86% 30.00 in 5.0 mi WSW 10.4 mph - N/A Snow Light Snow
1:33 PM 28.4 °F 18.5 °F 23.0 °F 80% 30.00 in 5.0 mi WSW 11.5 mph - N/A Snow Light Snow
1:53 PM 28.4 °F 19.1 °F 23.0 °F 80% 30.00 in 5.0 mi WSW 10.4 mph - N/A Snow Light Snow
2:13 PM 28.4 °F 17.5 °F 23.0 °F 80% 30.00 in 5.0 mi West 13.8 mph - N/A Snow Light Snow
2:33 PM 28.4 °F 18.0 °F 23.0 °F 80% 30.01 in 5.0 mi West 12.7 mph 18.4 mph N/A Snow Light Snow
2:53 PM 28.4 °F 18.0 °F 23.0 °F 80% 30.01 in 5.0 mi West 12.7 mph 16.1 mph N/A Snow Light Snow
3:13 PM 30.2 °F 19.8 °F 23.0 °F 75% 30.01 in 5.0 mi West 13.8 mph 18.4 mph N/A Snow Light Snow
3:34 PM 30.2 °F 20.8 °F 23.0 °F 75% 30.02 in 4.0 mi West 11.5 mph - N/A Snow Light Snow
3:54 PM 30.2 °F 19.3 °F 23.0 °F 75% 30.03 in 0.8 mi West 15.0 mph 20.7 mph N/A Snow Light Snow
4:34 PM 30.2 °F 19.3 °F 23.0 °F 75% 30.04 in 7.0 mi West 15.0 mph - N/A   Overcast
4:54 PM 30.2 °F 18.9 °F 23.0 °F 75% 30.05 in 7.0 mi West 16.1 mph - N/A   Overcast
5:14 PM 30.2 °F 20.2 °F 23.0 °F 75% 30.06 in 7.0 mi West 12.7 mph 16.1 mph N/A   Overcast
5:34 PM 30.2 °F 20.8 °F 23.0 °F 75% 30.07 in 10.0 mi West 11.5 mph - N/A   Overcast
5:54 PM 30.2 °F 21.3 °F 23.0 °F 75% 30.08 in 10.0 mi West 10.4 mph 18.4 mph N/A   Overcast
6:14 PM 28.4 °F 18.0 °F 23.0 °F 80% 30.09 in 10.0 mi West 12.7 mph - N/A   Overcast
6:34 PM 28.4 °F 18.5 °F 23.0 °F 80% 30.10 in 10.0 mi West 11.5 mph - N/A   Overcast
6:55 PM 28.4 °F 19.7 °F 23.0 °F 80% 30.10 in 10.0 mi West 9.2 mph - N/A   Overcast
7:15 PM 28.4 °F 17.5 °F 23.0 °F 80% 30.11 in 10.0 mi West 13.8 mph - N/A   Overcast
7:35 PM 28.4 °F 17.0 °F 23.0 °F 80% 30.11 in 10.0 mi West 15.0 mph 18.4 mph N/A   Overcast
7:55 PM 28.4 °F 19.1 °F 23.0 °F 80% 30.11 in 10.0 mi West 10.4 mph - N/A   Overcast
8:15 PM 28.4 °F 18.5 °F 23.0 °F 80% 30.11 in 10.0 mi West 11.5 mph 21.9 mph N/A   Overcast
8:35 PM 28.4 °F 19.1 °F 23.0 °F 80% 30.11 in 10.0 mi West 10.4 mph - N/A   Overcast
8:55 PM 28.4 °F 19.7 °F 23.0 °F 80% 30.11 in 10.0 mi WSW 9.2 mph - N/A   Overcast
9:15 PM 28.4 °F 19.7 °F 23.0 °F 80% 30.11 in 10.0 mi WSW 9.2 mph - N/A   Overcast
9:35 PM 30.2 °F 18.9 °F 21.2 °F 69% 30.10 in 10.0 mi West 16.1 mph 19.6 mph N/A   Overcast
9:50 PM 30.2 °F 20.8 °F 21.2 °F 69% 30.10 in 10.0 mi WSW 11.5 mph - N/A   Overcast
10:11 PM 28.4 °F 19.7 °F 23.0 °F 80% 30.09 in 10.0 mi WSW 9.2 mph - N/A   Overcast
10:31 PM 28.4 °F 19.1 °F 23.0 °F 80% 30.09 in 10.0 mi WSW 10.4 mph - N/A   Overcast
10:51 PM 28.4 °F 18.5 °F 23.0 °F 80% 30.08 in 10.0 mi WSW 11.5 mph 17.3 mph N/A   Overcast
11:11 PM 30.2 °F 19.3 °F 21.2 °F 69% 30.08 in 10.0 mi WSW 15.0 mph 21.9 mph N/A   Overcast
11:31 PM 30.2 °F 19.3 °F 23.0 °F 75% 30.08 in 10.0 mi WSW 15.0 mph - N/A   Overcast
11:51 PM 30.2 °F 20.2 °F 23.0 °F 75% 30.07 in 10.0 mi WSW 12.7 mph - N/A   Overcast